Date String (YYYY-MM-DD hh:mm:ss) UTC,Instrument flags,Ambient pressure (hPa),Sample flow (lpm),Bypass flow (lpm),Sample temperature (°C),Ambient temperature (°C),ASC tube jacket temperature (°C),LED temperature (°C),Box temperature (°C),Sample RH (%),Span deviation,Mass concentration (μg/m³),Mass concentration (μg/m³),Mass concentration (μg/m³)
DateTimeUTC,F1_M11,P_M11,Q1_M11,Q2_M11,T1_M11,T2_M11,T3_M11,T4_M11,T5_M11,U1_M11,ZSPAN_M11,X0_M11,X2_M11,X1_M11
2021-09-05 17:00:00,,0832.0,5.00,0.00,29.5,28.0,00.0,38.6,31.3,14.1,0002.2,0022.33,0013.07,0012.11
2021-09-05 17:01:00,,0832.0,4.99,0.00,29.6,28.3,00.0,38.6,31.4,13.8,0002.7,0022.23,0013.05,0012.08
2021-09-05 17:02:00,,0831.9,5.01,0.00,29.6,28.5,00.0,38.6,31.5,14.5,0002.8,0021.88,0013.02,0012.06
2021-09-05 17:03:00,,0831.9,4.99,0.00,29.7,28.7,00.0,38.6,31.5,14.7,0002.6,0021.95,0012.97,0012.03
2021-09-05 17:04:00,,0832.0,5.01,0.00,29.7,28.8,00.0,38.7,31.6,14.4,0002.7,0022.03,0012.96,0012.04
2021-09-05 17:05:00,,0832.0,5.01,0.00,29.8,28.9,00.0,38.7,31.7,14.0,0002.5,0022.06,0012.97,0012.04
2021-09-05 17:06:00,,0832.0,5.00,0.00,29.7,27.6,00.0,38.7,31.3,13.3,0002.3,0022.78,0013.01,0012.06
2021-09-05 17:07:00,,0832.0,5.01,0.00,29.6,26.2,00.0,38.7,30.9,14.0,0002.9,0021.60,0013.02,0012.06
2021-09-05 17:08:00,,0832.0,5.00,0.00,29.5,26.4,00.0,38.7,31.0,14.5,0002.8,0021.31,0013.01,0012.05
2021-09-05 17:09:00,,0831.9,4.99,0.00,29.5,26.8,00.0,38.6,31.0,14.7,0002.5,0021.44,0012.98,0012.03
2021-09-05 17:10:00,,0831.9,5.00,0.00,29.5,27.3,00.0,38.6,31.1,14.4,0002.2,0021.69,0013.00,0012.02
2021-09-05 17:11:00,,0831.9,5.01,0.00,29.5,27.7,00.0,38.6,31.2,15.0,0002.5,0021.86,0013.00,0012.03
2021-09-05 17:12:00,,0832.0,5.00,0.00,29.5,28.0,00.0,38.6,31.3,16.0,0002.1,0021.80,0013.04,0012.04
2021-09-05 17:13:00,,0832.0,4.99,0.00,29.6,28.2,00.0,38.6,31.4,16.7,0002.0,0021.82,0013.03,0012.05
2021-09-05 17:14:00,,0832.0,5.00,0.00,29.6,28.5,00.0,38.6,31.5,16.5,0002.5,0022.13,0013.11,0012.10
2021-09-05 17:15:00,,0832.0,5.01,0.00,29.7,28.6,00.0,38.6,31.5,16.9,0002.7,0022.25,0013.15,0012.11
2021-09-05 17:16:00,,0832.0,4.98,0.00,29.7,28.8,00.0,38.6,31.6,16.2,0002.7,0022.87,0013.17,0012.14
2021-09-05 17:17:00,,0832.0,5.01,0.00,29.7,27.8,00.0,38.7,31.3,16.0,0002.8,0021.68,0013.15,0012.16
2021-09-05 17:18:00,,0832.0,5.00,0.00,29.6,26.2,00.0,38.6,30.9,15.7,0002.2,0021.45,0013.19,0012.17
2021-09-05 17:19:00,,0832.0,5.00,0.00,29.5,26.2,00.0,38.6,30.9,13.6,0002.3,0021.53,0013.27,0012.25
2021-09-05 17:20:00,,0831.9,5.00,0.00,29.4,26.7,00.0,38.6,31.0,13.2,0002.5,0021.73,0013.38,0012.36
2021-09-05 17:21:00,,0831.9,5.01,0.00,29.4,27.1,00.0,38.6,31.1,14.9,0002.7,0021.66,0013.46,0012.43
2021-09-05 17:22:00,,0831.9,5.00,0.00,29.4,27.5,00.0,38.5,31.1,13.7,0002.5,0021.84,0013.56,0012.50
2021-09-05 17:23:00,,0831.9,5.00,0.00,29.5,27.9,00.0,38.5,31.2,13.3,0002.5,0021.82,0013.67,0012.65
2021-09-05 17:24:00,,0831.9,5.00,0.00,29.5,28.1,00.0,38.5,31.3,12.0,0002.6,0021.59,0013.89,0012.85
2021-09-05 17:25:00,,0832.0,5.00,0.00,29.6,28.4,00.0,38.5,31.4,11.2,0002.4,0021.02,0014.02,0013.01
2021-09-05 17:26:00,,0832.0,5.01,0.00,29.6,28.6,00.0,38.6,31.4,10.9,0002.2,0020.96,0014.20,0013.23
2021-09-05 17:27:00,,0832.0,5.01,0.00,29.7,28.7,00.0,38.6,31.5,11.4,0002.1,0020.31,0014.38,0013.42
2021-09-05 17:28:00,,0832.0,5.00,0.00,29.7,28.7,00.0,38.6,31.6,09.9,0002.0,0020.55,0014.55,0013.60
2021-09-05 17:29:00,,0832.0,5.01,0.00,29.7,27.3,00.0,38.6,31.2,10.3,0002.1,0021.98,0014.67,0013.76
2021-09-05 17:30:00,,0831.9,4.99,0.00,29.5,26.0,00.0,38.6,30.8,09.9,0002.0,0022.60,0014.78,0013.88
2021-09-05 17:31:00,,0832.0,5.00,0.00,29.4,26.3,00.0,38.6,30.9,10.4,0001.7,0022.74,0014.84,0013.94
2021-09-05 17:32:00,,0832.0,5.01,0.00,29.4,26.8,00.0,38.5,31.0,10.4,0001.3,0023.21,0014.90,0014.02
2021-09-05 17:33:00,,0832.0,4.99,0.00,29.4,27.2,00.0,38.5,31.1,10.4,0001.2,0023.06,0014.93,0014.09
2021-09-05 17:34:00,,0832.0,5.00,0.00,29.4,27.6,00.0,38.5,31.1,10.6,0001.4,0023.27,0014.92,0014.10
2021-09-05 17:35:00,,0832.0,5.01,0.00,29.5,27.9,00.0,38.5,31.2,11.2,0001.5,0023.08,0014.86,0014.04
2021-09-05 17:36:00,,0832.0,4.98,0.00,29.5,28.2,00.0,38.5,31.3,11.5,0001.7,0023.47,0014.84,0013.99
2021-09-05 17:37:00,,0832.0,5.00,0.00,29.6,28.4,00.0,38.5,31.4,11.8,0001.4,0023.57,0014.79,0013.89
2021-09-05 17:38:00,,0831.9,5.01,0.00,29.6,28.6,00.0,38.6,31.5,12.3,0002.0,0024.23,0014.73,0013.82
2021-09-05 17:39:00,,0832.0,5.00,0.00,29.7,28.7,00.0,38.6,31.5,11.8,0002.2,0025.04,0014.66,0013.74
2021-09-05 17:40:00,,0832.0,5.00,0.00,29.7,27.7,00.0,38.6,31.3,11.6,0002.6,0023.94,0014.63,0013.71
2021-09-05 17:41:00,,0832.0,5.01,0.00,29.5,26.1,00.0,38.6,30.9,11.9,0002.4,0024.04,0014.56,0013.65
2021-09-05 17:42:00,,0831.9,5.00,0.00,29.4,26.3,00.0,38.5,30.8,11.8,0002.5,0023.97,0014.52,0013.59
2021-09-05 17:43:00,,0831.9,4.98,0.00,29.4,26.7,00.0,38.5,30.9,11.8,0002.3,0023.39,0014.48,0013.55
2021-09-05 17:44:00,,0831.8,5.00,0.00,29.4,27.1,00.0,38.5,31.0,11.0,0001.8,0023.36,0014.50,0013.55
2021-09-05 17:45:00,,0831.9,5.00,0.00,29.4,27.5,00.0,38.5,31.1,10.6,0001.6,0022.89,0014.53,0013.54
2021-09-05 17:46:00,,0831.9,5.00,0.00,29.4,27.9,00.0,38.5,31.2,11.4,0001.5,0022.75,0014.52,0013.53
2021-09-05 17:47:00,,0831.9,5.00,0.00,29.5,28.2,00.0,38.5,31.3,11.3,0001.4,0022.31,0014.47,0013.50
2021-09-05 17:48:00,,0831.8,5.01,0.00,29.5,28.4,00.0,38.5,31.4,10.7,0001.5,0022.37,0014.45,0013.50
2021-09-05 17:49:00,,0831.8,5.00,0.00,29.6,28.6,00.0,38.5,31.4,10.3,0001.4,0021.72,0014.44,0013.54
2021-09-05 17:50:00,,0831.7,5.01,0.00,29.6,28.8,00.0,38.5,31.5,10.7,0001.2,0020.86,0014.46,0013.57
2021-09-05 17:51:00,,0831.7,4.99,0.00,29.6,28.0,00.0,38.6,31.3,11.3,0001.3,0021.01,0014.43,0013.55
2021-09-05 17:52:00,,0831.7,5.00,0.00,29.5,26.3,00.0,38.5,30.9,11.2,0001.3,0020.19,0014.46,0013.56
2021-09-05 17:53:00,,0831.7,5.00,0.00,29.4,26.1,00.0,38.5,30.8,10.7,0001.5,0020.14,0014.47,0013.59
2021-09-05 17:54:00,,0831.7,5.00,0.00,29.4,26.6,00.0,38.5,30.9,11.0,0001.5,0020.92,0014.48,0013.61
2021-09-05 17:55:00,,0831.7,5.01,0.00,29.3,27.0,00.0,38.5,31.0,11.5,0001.9,0022.08,0014.40,0013.55
2021-09-05 17:56:00,,0831.7,4.99,0.00,29.4,27.4,00.0,38.4,31.1,11.6,0001.9,0022.17,0014.33,0013.45
2021-09-05 17:57:00,,0831.7,5.00,0.00,29.4,27.8,00.0,38.4,31.2,10.1,0001.9,0022.22,0014.33,0013.44
2021-09-05 17:58:00,,0831.7,5.01,0.00,29.5,28.1,00.0,38.5,31.3,09.8,0001.8,0022.45,0014.38,0013.50
2021-09-05 17:59:00,,0831.7,5.01,0.00,29.5,28.3,00.0,38.5,31.3,10.5,0002.0,0023.03,0014.37,0013.49
